SCP
0 0 0 0 0 0 0 0 0 0 0 0 0 0 0 0 0 0 0 0 0 0 0 0 0 0 0 0 0 0 0 0 0 0 0 0 0 0
0 0 0 0 0 0 0 0 0 0 0 0 0 0 0 0 0 0 0 0 0 0 0 0 0 0 0 0 0 0 0 0 0 0 0 0 0 0
0 0 0 0 0 0 0 0 0 0 -0 0 0 0 0 0 0 0 0 0 0 0 0 0 0 0 0 0 0 0 0 0 0 0 0 0 0 0
0 0 0 0 0 0 0 0 0 -0 -0 0 0 0 0 0 0 0 0 0 0 0 0 0 0 0 0 0 0 0 0 0 0 0 0 0 0 0
0 0 0 0 0 0 0 0 0 -0 0 0 0 0 0 0 0 0 0 0 0 0 0 0 0 0 0 0 0 0 0 0 0 0 0 0 0 0
0 0 0 0 0 0 0 0 0 0 0 0 0 0 0 0 0 0 0 0 0 0 0 0 0 0 0 0 0 0 0 0 0 0 0 0 0 0
0 0 0 0 0 0 0 0 0 0 0 0 0 0 0 0 0 0 0 0 0 0 0 0 0 0 0 0 0 0 0 0 0 0 0 0 0 0
0 0 0 0 0 0 0 0 0 0 0 0 0 0 0 0 0 0 0 0 0 0 0 0 0 0 0 0 0 0 0 0 0 0 0 0 0 0
0 0 0 0 0 0 0 0 0 0 0 0 0 0 0 0 0 0 0 0 0 0 0 0 0 0 0 0 0 0 0 0 0 0 0 0 0 0
0 0 0 0 0 0 0 0 0 0 0 0 0 0 0 0 0 0 0 0 0 0 0 0 0 0 0 0 0 0 0 0 0 0 0 0 0 0
0 0 0 0 0 0 0 0 0 0 0 0 0 0 0 0 0 0 0 0 0 0 0 0 0 0 0 0 0 0 0 0 0 0 0 0 0 0
0 0 0 0 0 0 0 0 0 0 0 0 0 0 0 0 0 0 0 0 0 0 0 0 0 0 0 0 0 0 0 0 0 0 0 0 0 0
0 0 0 0 0 0 0 0 0 0 0 0 0 0 0 0 0 0 0 0 0 0 0 0 0 0 0 0 0 0 0 0 0 0 0 0 0 0
0 0 0 0 0 0 0 0 0 0 0 0 0 0 0 0 0 0 0 0 0 0 0 0 0 0 0 0 0 0 0 0 0 0 0 0 0 0
0 0 0 0 0 0 0 0 0 0 0 0 0 0 0 0 0 0 0 0 0 0 0 0 0 0 0 0 0 0 0 0 0 0 0 0 0 0
0 0 0 0 0 0 0 0 0 0 0 0 0 0 0 0 0 0 0 0 0 0 0 0 0 0 0 0 0 0 0 0 0 0 0 0 0 0
0 0 0 0 0 0 0 0 0 0 0 0 0 0 0 0 0 0 0 0 0 0 0 0 0 0 0 0 0 0 0 0 0 0 0 0 0 0
0 0 0 0 0 0 0 0 0 0 0 0 0 0 0 0 0 0 0 0 0 0 0 0 0 0 0 0 0 0 0 0 0 0 0 0 0 0
0 0 0 0 0 0 0 0 0 0 0 0 0 0 0 0 0 0 0 0 0 0 0 0 0 0 0 0 0 0 0 0 0 0 0 0 0 0
0 0 0 0 0 0 0 0 0 0 0 0 0 0 0 0 0 0 0 0 0 0 0 0 0 0 0 0 0 0 0 0 0 0 0 0 0 0
0 0 0 0 0 0 0 0 0 0 0 0 0 0 0 0 0 0 0 0 0 0 0 0 0 0 0 0 0 0 0 0 0 0 0 0 0 0
0 0 0 0 0 0 0 0 0 0 0 0 0 0 0 0 0 0 0 0 0 0 0 0 0 0 0 0 0 0 0 0 0 0 0 0 0 0
0 0 0 0 0 0 0 0 0 0 0 0 0 0 0 0 0 0 0 0 0 0 0 0 0 0 0 0 0 0 0 0 0 0 0 0 0 0
Wind_Speed
3 3 2 2 2 2 2 3 3 3 4 3 2 2 2 2 5 4 4 8 10 10 10 10 10 10 10 10 10 11 11 11 12 12 12 13 13 14
2 2 2 2 2 2 2 2 2 3 4 3 3 3 4 4 7 5 4 9 9 10 10 11 11 11 11 10 11 11 11 12 12 12 13 13 14 14
2 3 3 2 2 2 2 2 2 2 4 4 3 3 3 4 5 4 4 3 4 10 11 11 11 10 11 10 10 11 11 11 12 12 12 13 13 14
4 3 4 3 3 2 2 3 3 3 3 5 4 3 4 4 4 4 4 4 4 9 11 11 10 10 10 10 10 11 11 11 12 12 12 13 13 14
4 5 5 4 4 3 3 3 3 3 3 4 5 3 3 3 3 4 4 3 4 6 9 9 10 10 11 11 11 11 11 11 11 12 12 13 13 14
5 5 5 5 5 5 4 4 4 3 3 4 5 4 3 3 2 3 4 3 4 5 6 7 8 10 11 11 11 11 11 11 12 12 12 13 13 14
4 5 5 7 8 7 5 5 4 4 4 4 4 4 4 3 3 2 4 4 4 4 3 4 4 4 5 8 10 11 11 12 12 13 13 13 13 14
5 4 5 6 8 9 10 9 8 6 5 5 5 5 5 4 3 4 3 3 4 2 2 4 3 4 4 3 8 12 12 12 12 13 13 14 14 15
5 4 4 5 6 5 7 9 9 10 10 7 6 6 5 5 4 5 4 4 5 3 3 5 3 5 4 5 11 12 12 12 12 12 13 14 15 16
5 5 5 5 5 5 5 4 5 5 7 6 6 6 5 4 4 4 4 4 4 4 3 4 4 4 5 4 9 11 11 12 12 13 14 15 15 15
4 4 5 4 8 8 5 4 4 5 7 9 9 8 8 8 6 2 2 3 4 4 2 3 3 4 4 4 6 9 10 11 13 14 15 15 15 14
3 4 6 7 8 8 5 4 5 5 4 4 5 5 5 5 7 4 3 3 3 3 2 2 3 3 4 3 3 4 5 9 13 14 14 15 15 8
3 3 4 8 9 8 6 4 6 5 3 3 3 3 2 2 3 3 3 4 4 4 3 2 3 3 4 5 4 4 4 5 6 8 11 14 15 11
4 3 4 7 7 7 5 5 7 5 2 2 2 2 2 2 2 2 3 3 4 5 5 4 4 4 5 6 6 4 4 4 5 6 6 10 11 13
3 5 5 6 5 4 5 6 4 2 1 2 2 2 2 2 2 2 2 3 3 4 4 4 5 5 5 6 6 5 6 5 5 5 5 6 6 6
3 4 5 5 4 4 4 3 2 2 2 2 2 2 1 1 2 2 2 2 3 3 3 4 4 5 5 6 6 7 6 5 5 5 6 6 6 6
2 1 1 1 1 1 1 1 1 2 2 1 2 1 2 2 2 2 2 2 3 3 4 3 3 3 5 5 6 7 6 6 6 5 6 7 7 6
3 2 2 2 2 2 2 2 2 2 2 2 2 2 2 2 2 2 2 3 3 4 4 3 3 3 4 4 7 7 6 6 6 6 6 7 8 6
2 2 2 3 3 3 3 3 3 2 2 2 2 2 2 2 2 3 3 3 3 4 4 3 3 3 5 7 5 5 5 6 6 6 6 6 8 8
2 2 3 3 3 3 3 3 3 2 2 2 2 2 2 3 3 3 3 3 4 4 4 4 3 4 5 6 6 6 8 7 6 7 7 6 7 10
3 3 3 3 3 3 3 3 3 3 3 2 3 3 3 3 3 4 4 6 5 4 5 5 5 7 4 3 5 6 6 9 9 7 7 7 8 7
3 3 3 3 3 3 3 3 3 3 3 3 3 3 3 4 4 5 4 4 4 4 5 5 4 4 3 4 7 8 8 8 9 13 13 11 7 7
4 4 3 3 3 3 3 4 4 4 4 4 4 4 4 4 4 4 4 4 4 4 4 5 4 4 4 5 6 7 9 9 7 7 7 11 14 16
Wind_Direction
202 206 215 220 212 210 198 191 200 257 272 256 267 282 296 295 298 302 296 309 311 308 307 308 306 306 305 305 304 305 304 300 299 296 294 292 290 288
209 204 219 220 219 214 208 218 213 224 259 258 257 275 286 293 296 297 290 305 307 303 301 302 302 301 302 301 299 300 300 300 298 295 294 292 293 292
218 215 226 223 223 225 223 226 229 218 252 276 271 274 278 282 293 289 283 283 290 297 297 296 297 299 300 300 299 298 299 300 300 298 296 295 295 293
218 222 233 236 234 230 226 230 234 228 234 265 279 274 268 268 274 279 288 290 283 291 293 294 296 298 298 300 299 296 296 297 298 298 297 298 297 297
219 221 229 226 235 233 229 233 238 245 233 246 270 272 269 270 275 284 285 283 289 292 292 295 298 298 298 299 299 298 298 298 297 297 298 298 298 297
230 229 228 226 230 229 234 232 232 239 236 242 261 270 272 267 256 274 292 288 291 297 291 295 300 303 303 303 301 301 300 297 296 297 298 299 299 297
230 234 237 238 238 237 237 230 223 227 234 241 252 265 267 265 259 262 276 290 288 280 281 286 292 290 295 298 299 297 296 296 297 297 297 298 299 298
227 236 243 248 250 253 254 251 242 232 231 236 249 248 257 254 255 257 264 279 286 278 275 284 280 279 279 273 289 293 294 295 295 296 296 298 297 296
221 228 241 249 258 250 254 259 259 257 251 246 243 246 249 244 242 252 256 263 267 276 286 285 276 275 276 283 290 290 294 297 297 299 300 299 298 296
226 226 231 239 247 249 246 249 253 259 257 253 243 244 245 244 236 241 250 267 272 273 268 274 279 277 285 280 286 289 296 300 302 303 302 301 300 298
233 233 231 232 246 254 248 240 255 264 269 262 256 251 254 256 251 238 244 256 273 275 252 254 277 293 288 279 281 290 296 302 305 306 304 303 302 300
235 238 244 247 251 253 235 223 243 257 259 265 267 268 263 259 263 247 235 243 264 274 249 254 276 303 296 280 279 289 293 297 301 302 303 305 304 299
234 238 243 253 258 259 252 230 244 252 241 245 250 254 252 246 252 249 241 240 250 257 257 265 271 276 270 286 291 286 282 287 295 296 299 302 302 298
233 238 244 255 263 267 262 254 261 267 240 229 234 243 247 253 257 257 256 257 256 259 261 259 261 268 275 282 285 288 287 286 287 289 291 297 299 299
235 244 253 259 267 269 270 272 269 252 226 236 241 249 248 248 252 268 275 275 278 274 269 265 262 267 264 268 277 283 294 292 280 281 289 292 292 293
249 247 253 259 264 272 272 274 261 235 228 233 240 249 254 246 250 258 272 286 289 290 285 276 265 262 268 272 275 281 281 281 288 288 290 289 285 281
219 201 219 236 238 248 268 277 259 251 251 236 237 244 251 259 266 265 260 265 265 277 294 300 289 279 268 267 272 272 276 279 280 287 290 289 284 280
218 206 219 221 228 236 245 259 265 253 243 241 238 236 245 255 265 272 269 262 264 272 280 288 302 311 303 280 256 266 272 278 283 285 282 284 287 287
215 210 221 224 228 232 234 236 245 253 248 233 236 236 241 249 255 262 266 267 269 275 278 279 280 279 288 289 282 259 274 285 288 285 279 275 280 288
219 220 226 232 233 231 233 239 246 249 247 242 239 236 235 240 247 254 255 257 267 276 280 275 265 258 257 272 283 286 283 279 282 285 286 285 279 284
232 233 230 229 234 234 235 236 239 240 242 240 241 237 236 236 245 250 254 265 271 269 271 274 271 283 280 278 279 280 280 284 284 280 286 288 289 290
233 235 236 233 232 232 232 234 237 240 240 241 243 243 240 236 242 248 251 256 260 262 268 277 282 287 272 265 274 283 291 294 293 290 282 274 273 277
232 235 235 233 232 229 228 231 233 238 237 238 242 245 244 243 245 247 251 254 260 265 272 281 286 280 273 269 275 282 288 294 298 297 289 288 283 280